Location: Passau
(48.5830°N, 13.4830°E)
Time: 11:43:16
(UTC+01:00)

NOAA 19 - Pass Details

Date: 01 December 2021
Orbit: 841 x 860 km, 99.2° (Epoch: 23 January)

Event Time Altitude Azimuth Distance (km) Brightness Sun altitude
Rises 16:49:37 0° 109° (ESE) 3,393 7.9 -6.1°
Reaches altitude 10° 16:52:53 10° 88° (E) 2,464 7.1 -6.6°
Maximum altitude 16:56:02 16° 52° (NE) 2,081 6.6 -7.1°
Drops below altitude 10° 16:59:11 10° 17° (NNE) 2,476 7.3 -7.5°
Sets 17:02:28 0° 357° (N) 3,420 8.1 -8.0°
